Havre, MT

9:15 PM MDT on April 19, 2018 (GMT -0600)
Havre City-County

Weather History for KHVR - March, 2014

Change the Weather History Date:

Saturday, March 8, 2014

  Actual Average Record
Temperature  
Mean Temperature 27 °F 29 °F  
Max Temperature 47 °F 41 °F 67 °F (1885)
Min Temperature 7 °F 18 °F -30 °F (1951)
Degree Days  
Heating Degree Days 38 36  
Month to date heating degree days 442 299  
Since 1 July heating degree days 6683 6419  
Cooling Degree Days 0 0  
Month to date cooling degree days 0 0  
Year to date cooling degree days 0 0  
Moisture  
Dew Point 22 °F    
Average Humidity 73    
Maximum Humidity 92    
Minimum Humidity 53    
Precipitation  
Precipitation 0.00 in 0.01 in 0.20 in (1975)
Month to date precipitation 0.26 0.10  
Year to date precipitation 0.92 0.71  
Snow  
Snow 0.00 in 0.20 in 2.90 in (1949)
Month to date snowfall 1.0 1.6  
Since 1 July snowfall 38.4 29.5  
Snow Depth 1.00 in    
Sea Level Pressure  
Sea Level Pressure 30.01 in    
Wind  
Wind Speed 15 mph (SW)    
Max Wind Speed 33 mph    
Max Gust Speed 40 mph    
Visibility 10 miles    
Events      
T = Trace of Precipitation, MM = Missing Value Source: NWS Daily Summary

Daily Weather History Graph

Daily Weather History Graph

Search for Another Location

Airport or City:

Astronomy

Mar. 08, 2014 Rise Set
Actual Time 6:46 AM MST 6:13 PM MST
Civil Twilight 6:15 AM MST 6:45 PM MST
Nautical Twilight 5:38 AM MST 7:21 PM MST
Astronomical Twilight 5:02 AM MST 7:58 PM MST
Moon 11:00 AM MST (3/8) 1:44 AM MST (3/8)
Length of Visible Light 12h 29m
Length of Day
11h 27m
First Quarter, 52% of the Moon is Illuminated
Mar 8
First Quarter
Mar 16
Full
Mar 23
Last Quarter
Mar 30
New
Apr 7
First Quarter

Hourly Weather History & Observations

Time (MST) Temp. Windchill Dew Point Humidity Pressure Visibility Wind Dir Wind Speed Gust Speed Precip Events Conditions
12:53 AM 10.9 °F 0.2 °F 8.1 °F 88% 30.24 in 9.0 mi East 6.9 mph - N/A   Clear
1:53 AM 9.0 °F -0.9 °F 6.1 °F 88% 30.23 in 8.0 mi East 5.8 mph - N/A   Clear
2:53 AM 10.0 °F 1.8 °F 6.1 °F 84% 30.21 in 9.0 mi ESE 4.6 mph - N/A   Clear
3:53 AM 9.0 °F 2.4 °F 5.0 °F 84% 30.18 in 9.0 mi ESE 3.5 mph - N/A   Clear
4:53 AM 8.1 °F 1.4 °F 5.0 °F 87% 30.18 in 9.0 mi WSW 3.5 mph - N/A   Clear
5:53 AM 7.0 °F -1.7 °F 3.0 °F 84% 30.19 in 10.0 mi West 4.6 mph - N/A   Clear
6:53 AM 19.0 °F 6.8 °F 15.1 °F 85% 30.17 in 10.0 mi WSW 11.5 mph - N/A   Clear
7:53 AM 25.0 °F 15.5 °F 21.0 °F 85% 30.16 in 10.0 mi WSW 9.2 mph - N/A   Clear
8:53 AM 34.0 °F 23.0 °F 26.1 °F 73% 30.12 in 10.0 mi SW 18.4 mph - N/A   Clear
9:53 AM 39.0 °F 28.8 °F 28.0 °F 65% 30.09 in 10.0 mi SW 21.9 mph 31.1 mph N/A   Clear
10:53 AM 41.0 °F 31.4 °F 28.0 °F 60% 30.07 in 10.0 mi SW 21.9 mph 32.2 mph N/A   Clear
11:53 AM 44.1 °F 35.0 °F 28.9 °F 55% 30.04 in 10.0 mi SW 24.2 mph 33.4 mph N/A   Clear
12:53 PM 46.9 °F - 30.0 °F 52% 29.99 in 10.0 mi SW 26.5 mph 33.4 mph N/A   Clear
1:53 PM 46.0 °F 40.2 °F 30.0 °F 54% 29.99 in 10.0 mi WSW 12.7 mph 21.9 mph N/A   Clear
2:53 PM 45.0 °F 40.6 °F 30.0 °F 56% 29.96 in 10.0 mi West 8.1 mph - N/A   Clear
3:53 PM 44.1 °F 35.4 °F 28.0 °F 53% 29.94 in 10.0 mi SW 21.9 mph 26.5 mph N/A   Clear
4:53 PM 45.0 °F 34.7 °F 28.0 °F 52% 29.89 in 10.0 mi SSW 33.4 mph 40.3 mph N/A   Mostly Cloudy
5:53 PM 44.1 °F 36.2 °F 28.9 °F 55% 29.91 in 10.0 mi SSW 18.4 mph - N/A   Mostly Cloudy
6:53 PM 43.0 °F 35.7 °F 28.9 °F 58% 29.88 in 10.0 mi SW 15.0 mph - N/A   Mostly Cloudy
7:53 PM 42.1 °F 34.5 °F 28.9 °F 60% 29.84 in 10.0 mi SW 15.0 mph - N/A   Clear
8:53 PM 42.1 °F 33.3 °F 28.9 °F 60% 29.81 in 10.0 mi SW 19.6 mph - N/A   Clear
9:53 PM 42.1 °F 34.2 °F 28.9 °F 60% 29.80 in 10.0 mi SW 16.1 mph - N/A   Clear
10:53 PM 44.1 °F 36.5 °F 28.0 °F 53% 29.78 in 10.0 mi SW 17.3 mph - N/A   Clear
11:53 PM 42.1 °F 34.5 °F 28.9 °F 60% 29.76 in 10.0 mi WSW 15.0 mph - N/A   Mostly Cloudy